Homerville, GA

11:48 AM EDT on April 23, 2017 (GMT -0400)
Homerville

Weather History for KHOE - January, 2014

Change the Weather History Date:

Thursday, January 9, 2014

  Actual Average Record
Temperature  
Mean Temperature 51 °F -  
Max Temperature 60 °F 61 °F 81 °F (1974)
Min Temperature 42 °F 37 °F 14 °F (1970)
Degree Days  
Heating Degree Days 14    
Growing Degree Days 1 (Base 50)    
Moisture  
Dew Point 45 °F    
Average Humidity 79    
Maximum Humidity 100    
Minimum Humidity 61    
Precipitation  
Precipitation 0.00 in - - ()
Sea Level Pressure  
Sea Level Pressure 30.37 in    
Wind  
Wind Speed 2 mph (ENE)    
Max Wind Speed 12 mph    
Max Gust Speed -    
Visibility 10 miles    
Events Rain    
Averages and records for this station are not official NWS values.
T = Trace of Precipitation, MM = Missing Value Source: NWS Daily Summary

Daily Weather History Graph

Daily Weather History Graph

Search for Another Location

Airport or City:

Trip Planner

Search our weather history database for the weather conditions in past years. The results will help you decide how hot, cold, wet, or windy it might be!

Date:

Astronomy

Jan. 09, 2014 Rise Set
Actual Time 7:30 AM EST 5:46 PM EST
Civil Twilight 7:04 AM EST 6:12 PM EST
Nautical Twilight 6:34 AM EST 6:42 PM EST
Astronomical Twilight 6:04 AM EST 7:11 PM EST
Moon 1:04 PM EST (1/9) 1:46 AM EST (1/9)
Length of Visible Light 11h 08m
Length of Day
10h 15m
Waxing Gibbous, 66% of the Moon is Illuminated
Jan 9
Waxing Gibbous
Jan 15
Full
Jan 24
Last Quarter
Jan 30
New
Feb 6
First Quarter

Hourly Weather History & Observations

Time (EST) Temp. Windchill Dew Point Humidity Pressure Visibility Wind Dir Wind Speed Gust Speed Precip Events Conditions
12:15 AM 44.6 °F - 32.0 °F 61% 30.43 in 10.0 mi Calm Calm - N/A   Overcast
12:35 AM 44.6 °F - 32.0 °F 61% 30.42 in 10.0 mi Calm Calm - N/A   Overcast
12:55 AM 44.6 °F - 32.0 °F 61% 30.42 in 10.0 mi Calm Calm - N/A   Overcast
1:15 AM 44.6 °F - 32.0 °F 61% 30.41 in 10.0 mi Calm Calm - N/A   Overcast
1:35 AM 44.6 °F - 32.0 °F 61% 30.40 in 10.0 mi Calm Calm - N/A   Overcast
1:55 AM 44.6 °F - 32.0 °F 61% 30.40 in 10.0 mi Calm Calm - N/A   Overcast
2:15 AM 44.6 °F - 32.0 °F 61% 30.40 in 10.0 mi Calm Calm - N/A   Overcast
2:35 AM 44.6 °F - 32.0 °F 61% 30.39 in 10.0 mi Calm Calm - N/A   Overcast
2:55 AM 44.6 °F - 32.0 °F 61% 30.40 in 10.0 mi Calm Calm - N/A   Overcast
3:15 AM 44.6 °F - 33.8 °F 66% 30.40 in 10.0 mi Calm Calm - N/A   Overcast
3:35 AM 42.8 °F - 33.8 °F 70% 30.39 in 10.0 mi Calm Calm - N/A   Scattered Clouds
3:55 AM 42.8 °F - 33.8 °F 70% 30.38 in 10.0 mi Calm Calm - N/A   Mostly Cloudy
4:15 AM 44.6 °F - 33.8 °F 66% 30.38 in 10.0 mi Calm Calm - N/A   Overcast
4:35 AM 44.6 °F - 33.8 °F 66% 30.38 in 10.0 mi Calm Calm - N/A   Overcast
4:55 AM 44.6 °F - 33.8 °F 66% 30.38 in 10.0 mi Calm Calm - N/A   Overcast
5:15 AM 44.6 °F - 33.8 °F 66% 30.38 in 10.0 mi Calm Calm - N/A   Overcast
5:35 AM 44.6 °F - 33.8 °F 66% 30.38 in 10.0 mi Calm Calm - N/A   Overcast
5:55 AM 44.6 °F - 33.8 °F 66% 30.39 in 10.0 mi Calm Calm - N/A   Overcast
6:15 AM 44.6 °F 43.1 °F 33.8 °F 66% 30.39 in 10.0 mi NNE 3.5 mph - N/A   Overcast
6:35 AM 44.6 °F - 33.8 °F 66% 30.40 in 10.0 mi Calm Calm - N/A   Overcast
6:55 AM 44.6 °F - 33.8 °F 66% 30.41 in 10.0 mi Calm Calm - N/A   Overcast
7:15 AM 44.6 °F 43.1 °F 33.8 °F 66% 30.41 in 10.0 mi NE 3.5 mph - N/A   Overcast
7:35 AM 44.6 °F 43.1 °F 33.8 °F 66% 30.41 in 10.0 mi ENE 3.5 mph - N/A   Overcast
7:55 AM 44.6 °F - 35.6 °F 71% 30.42 in 10.0 mi Calm Calm - N/A   Overcast
8:15 AM 46.4 °F 45.2 °F 35.6 °F 66% 30.42 in 10.0 mi ENE 3.5 mph - N/A   Overcast
8:35 AM 46.4 °F 45.2 °F 35.6 °F 66% 30.43 in 10.0 mi NE 3.5 mph - N/A   Overcast
8:55 AM 46.4 °F 45.2 °F 35.6 °F 66% 30.43 in 10.0 mi ENE 3.5 mph - N/A   Overcast
9:15 AM 46.4 °F 45.2 °F 37.4 °F 71% 30.42 in 10.0 mi ENE 3.5 mph - N/A   Overcast
9:35 AM 46.4 °F 45.2 °F 41.0 °F 81% 30.43 in 10.0 mi ENE 3.5 mph - N/A   Overcast
9:55 AM 50.0 °F - 44.6 °F 82% 30.43 in 10.0 mi ENE 5.8 mph - N/A   Overcast
10:15 AM 50.0 °F - 46.4 °F 87% 30.43 in 7.0 mi ENE 4.6 mph - N/A   Overcast
10:35 AM 51.8 °F - 46.4 °F 82% 30.43 in 10.0 mi ENE 8.1 mph - N/A   Overcast
10:55 AM 53.6 °F - 48.2 °F 82% 30.43 in 10.0 mi ENE 5.8 mph - N/A   Overcast
11:15 AM 53.6 °F - 48.2 °F 82% 30.42 in 10.0 mi ENE 6.9 mph - N/A   Overcast
11:35 AM 53.6 °F - 48.2 °F 82% 30.42 in 10.0 mi NE 3.5 mph - N/A   Overcast
11:55 AM 53.6 °F - 48.2 °F 82% 30.41 in 10.0 mi ENE 3.5 mph - N/A   Overcast
12:15 PM 53.6 °F - 50.0 °F 88% 30.40 in 7.0 mi East 3.5 mph - N/A   Light Drizzle
12:35 PM 53.6 °F - 50.0 °F 88% 30.38 in 10.0 mi Calm Calm - N/A   Overcast
12:55 PM 55.4 °F - 50.0 °F 82% 30.36 in 10.0 mi ENE 3.5 mph - N/A   Overcast
1:15 PM 55.4 °F - 51.8 °F 88% 30.35 in 10.0 mi East 8.1 mph - N/A   Overcast
1:35 PM 57.2 °F - 51.8 °F 82% 30.34 in 10.0 mi NE 4.6 mph - N/A   Overcast
1:55 PM 59.0 °F - 51.8 °F 77% 30.33 in 10.0 mi ENE 6.9 mph - N/A   Overcast
2:15 PM 60.8 °F - 53.6 °F 77% 30.31 in 10.0 mi East 9.2 mph - N/A   Mostly Cloudy
2:35 PM 60.8 °F - 53.6 °F 77% 30.32 in 10.0 mi ENE 8.1 mph - N/A   Mostly Cloudy
2:55 PM 60.8 °F - 53.6 °F 77% 30.32 in 10.0 mi East 4.6 mph - N/A   Overcast
3:35 PM 60.8 °F - 53.6 °F 77% 30.31 in 10.0 mi East 6.9 mph - N/A   Overcast
3:55 PM 60.8 °F - 53.6 °F 77% 30.31 in 10.0 mi East 4.6 mph - N/A   Overcast
4:15 PM 60.8 °F - 53.6 °F 77% 30.31 in 10.0 mi East 4.6 mph - N/A   Overcast
4:35 PM 60.8 °F - 53.6 °F 77% 30.31 in 10.0 mi ENE 5.8 mph - N/A   Overcast
4:55 PM 60.8 °F - 55.4 °F 82% 30.31 in 10.0 mi ENE 4.6 mph - N/A   Overcast
5:15 PM 60.8 °F - 55.4 °F 82% 30.30 in 10.0 mi ENE 4.6 mph - N/A   Overcast
6:35 PM 59.0 °F - 53.6 °F 82% 30.31 in 10.0 mi ENE 5.8 mph - N/A   Overcast
6:55 PM 59.0 °F - 53.6 °F 82% 30.32 in 10.0 mi ENE 3.5 mph - N/A   Overcast
7:15 PM 57.2 °F - 53.6 °F 88% 30.31 in 5.0 mi East 11.5 mph - N/A Rain Heavy Rain
7:35 PM 55.4 °F - 55.4 °F 100% 30.31 in 7.0 mi Calm Calm - N/A Rain Light Rain
7:55 PM 55.4 °F - 55.4 °F 100% 30.32 in 10.0 mi NE 3.5 mph - N/A   Light Drizzle
8:15 PM 55.4 °F - 55.4 °F 100% 30.33 in 10.0 mi NE 3.5 mph - N/A Rain Rain
8:35 PM 55.4 °F - 55.4 °F 100% 30.34 in 10.0 mi Calm Calm - N/A   Overcast
8:55 PM 55.4 °F - 55.4 °F 100% 30.34 in 10.0 mi Calm Calm - N/A Rain Rain
9:15 PM 55.4 °F - 55.4 °F 100% 30.32 in 10.0 mi East 6.9 mph - N/A Rain Light Rain
9:35 PM 55.4 °F - 55.4 °F 100% 30.32 in 10.0 mi Calm Calm - N/A Rain Light Rain
9:55 PM 55.4 °F - 55.4 °F 100% 30.34 in 10.0 mi Calm Calm - N/A   Overcast
10:15 PM 57.2 °F - 57.2 °F 100% 30.32 in 10.0 mi East 4.6 mph - N/A   Overcast
10:35 PM 57.2 °F - 57.2 °F 100% 30.32 in 10.0 mi East 5.8 mph - N/A   Overcast
10:55 PM 57.2 °F - 57.2 °F 100% 30.32 in 10.0 mi Calm Calm - N/A   Overcast
11:15 PM 57.2 °F - 57.2 °F 100% 30.31 in 7.0 mi Calm Calm - N/A   Overcast
11:35 PM 57.2 °F - 57.2 °F 100% 30.29 in 4.0 mi ENE 3.5 mph - N/A   Overcast
11:55 PM 57.2 °F - 57.2 °F 100% 30.29 in 4.0 mi East 3.5 mph - N/A   Overcast